Time,TemperatureF,DewpointF,PressureIn,WindDirection,WindDirectionDegrees,WindSpeedMPH,WindSpeedGustMPH,Humidity,HourlyPrecipIn,Conditions,Clouds,dailyrainin,SoftwareType,DateUTC
2013-08-07 00:01:00,85.0,62.0,29.85,SW,214,2.0,3.0,46,0.00,,,0.00,,2013-08-07 07:01:00,
2013-08-07 00:43:00,84.0,62.0,29.85,SSW,199,0.0,1.0,48,0.00,,,0.00,,2013-08-07 07:43:00,
2013-08-07 00:52:00,84.0,62.0,29.85,SSE,164,0.0,1.0,48,0.00,,,0.00,,2013-08-07 07:52:00,
2013-08-07 01:01:00,84.0,63.0,29.85,SSE,164,0.0,0.0,49,0.00,,,0.00,,2013-08-07 08:01:00,
2013-08-07 01:32:00,82.0,61.0,29.84,SE,145,0.0,0.0,50,0.00,,,0.00,,2013-08-07 08:32:00,
2013-08-07 01:43:00,82.0,61.0,29.84,SE,141,0.0,0.0,49,0.00,,,0.00,,2013-08-07 08:43:00,
2013-08-07 02:01:00,82.0,62.0,29.84,SE,141,0.0,0.0,51,0.00,,,0.00,,2013-08-07 09:01:00,
2013-08-07 02:11:00,82.0,62.0,29.84,SE,141,0.0,0.0,51,0.00,,,0.00,,2013-08-07 09:11:00,
2013-08-07 02:54:00,80.0,61.0,29.83,SE,135,0.0,0.0,53,0.00,,,0.00,,2013-08-07 09:54:00,
2013-08-07 03:01:00,80.0,62.0,29.83,ESE,120,0.0,2.0,54,0.00,,,0.00,,2013-08-07 10:01:00,
2013-08-07 03:43:00,81.0,63.0,29.83,NNE,26,0.0,1.0,54,0.00,,,0.00,,2013-08-07 10:43:00,
2013-08-07 03:52:00,81.0,63.0,29.83,NNE,27,0.0,0.0,54,0.00,,,0.00,,2013-08-07 10:52:00,
2013-08-07 04:01:00,80.0,62.0,29.83,NNE,12,0.0,1.0,55,0.00,,,0.00,,2013-08-07 11:01:00,
2013-08-07 04:32:00,79.0,63.0,29.84,NNW,345,0.0,0.0,58,0.00,,,0.00,,2013-08-07 11:32:00,
2013-08-07 04:42:00,79.0,63.0,29.84,NNW,345,0.0,0.0,59,0.00,,,0.00,,2013-08-07 11:42:00,
2013-08-07 04:52:00,79.0,64.0,29.84,NNW,347,0.0,0.0,61,0.00,,,0.00,,2013-08-07 11:52:00,
2013-08-07 05:02:00,78.0,64.0,29.84,NNW,346,0.0,0.0,62,0.00,,,0.00,,2013-08-07 12:02:00,
2013-08-07 05:32:00,78.0,64.0,29.84,SE,137,0.0,1.0,62,0.00,,,0.00,,2013-08-07 12:32:00,
2013-08-07 05:43:00,78.0,62.0,29.84,SE,138,0.0,0.0,59,0.00,,,0.00,,2013-08-07 12:43:00,
2013-08-07 05:52:00,78.0,62.0,29.85,SE,137,0.0,0.0,59,0.00,,,0.00,,2013-08-07 12:52:00,
2013-08-07 06:02:00,77.0,62.0,29.85,SE,138,0.0,0.0,59,0.00,,,0.00,,2013-08-07 13:02:00,
2013-08-07 06:43:00,77.0,64.0,29.86,East,79,1.0,1.0,65,0.00,,,0.00,,2013-08-07 13:43:00,
2013-08-07 06:52:00,78.0,65.0,29.86,ENE,73,0.0,1.0,64,0.00,,,0.00,,2013-08-07 13:52:00,
2013-08-07 07:01:00,79.0,65.0,29.87,North,4,0.0,0.0,63,0.00,,,0.00,,2013-08-07 14:01:00,
2013-08-07 07:11:00,80.0,66.0,29.87,North,10,0.0,0.0,63,0.00,,,0.00,,2013-08-07 14:11:00,
2013-08-07 07:42:00,84.0,67.0,29.88,North,7,0.0,0.0,57,0.00,,,0.00,,2013-08-07 14:42:00,
2013-08-07 07:52:00,85.0,67.0,29.88,ESE,116,0.0,2.0,55,0.00,,,0.00,,2013-08-07 14:52:00,
2013-08-07 08:33:00,89.0,70.0,29.89,SE,141,0.0,1.0,54,0.00,,,0.00,,2013-08-07 15:33:00,
2013-08-07 08:43:00,90.0,70.0,29.89,SSE,168,0.0,1.0,52,0.00,,,0.00,,2013-08-07 15:43:00,
2013-08-07 09:11:00,92.0,70.0,29.89,SSE,166,0.0,2.0,49,0.00,,,0.00,,2013-08-07 16:11:00,
2013-08-07 09:52:00,95.0,68.0,29.89,SE,146,1.0,1.0,41,0.00,,,0.00,,2013-08-07 16:52:00,
2013-08-07 10:01:00,94.0,64.0,29.89,SE,133,3.0,5.0,38,0.00,,,0.00,,2013-08-07 17:01:00,
2013-08-07 10:42:00,99.0,57.0,29.88,ESE,122,2.0,3.0,25,0.00,,,0.00,,2013-08-07 17:42:00,
2013-08-07 10:52:00,99.0,59.0,29.89,NNE,23,1.0,3.0,27,0.00,,,0.00,,2013-08-07 17:52:00,
2013-08-07 11:02:00,100.0,57.0,29.88,NW,305,0.0,1.0,24,0.00,,,0.00,,2013-08-07 18:02:00,
2013-08-07 11:11:00,101.0,55.0,29.88,WSW,251,2.0,5.0,22,0.00,,,0.00,,2013-08-07 18:11:00,
2013-08-07 11:32:00,102.0,50.0,29.88,SW,233,3.0,6.0,18,0.00,,,0.00,,2013-08-07 18:32:00,
2013-08-07 11:52:00,103.0,53.0,29.88,West,262,3.0,4.0,19,0.00,,,0.00,,2013-08-07 18:52:00,
2013-08-07 12:01:00,103.0,53.0,29.88,SSW,206,3.0,4.0,19,0.00,,,0.00,,2013-08-07 19:01:00,
2013-08-07 12:43:00,105.0,50.0,29.87,West,279,4.0,6.0,16,0.00,,,0.00,,2013-08-07 19:43:00,
2013-08-07 12:52:00,105.0,50.0,29.86,SW,217,1.0,4.0,16,0.00,,,0.00,,2013-08-07 19:52:00,
2013-08-07 13:11:00,107.0,39.0,29.86,WSW,238,4.0,5.0,10,0.00,,,0.00,,2013-08-07 20:11:00,
2013-08-07 13:21:00,107.0,41.0,29.86,West,264,3.0,5.0,11,0.00,,,0.00,,2013-08-07 20:21:00,
2013-08-07 13:43:00,107.0,39.0,29.85,WSW,241,6.0,11.0,10,0.00,,,0.00,,2013-08-07 20:43:00,
2013-08-07 13:52:00,107.0,39.0,29.84,SW,219,3.0,6.0,10,0.00,,,0.00,,2013-08-07 20:52:00,
2013-08-07 14:43:00,108.0,27.0,29.82,SW,218,5.0,8.0,6,0.00,,,0.00,,2013-08-07 21:43:00,
2013-08-07 15:43:00,108.0,27.0,29.80,WSW,243,3.0,5.0,6,0.00,,,0.00,,2013-08-07 22:43:00,
2013-08-07 15:52:00,107.0,26.0,29.79,West,267,4.0,5.0,6,0.00,,,0.00,,2013-08-07 22:52:00,
2013-08-07 16:01:00,108.0,23.0,29.79,West,266,3.0,5.0,5,0.00,,,0.00,,2013-08-07 23:01:00,
2013-08-07 16:11:00,108.0,23.0,29.78,WSW,247,6.0,7.0,5,0.00,,,0.00,,2013-08-07 23:11:00,
2013-08-07 16:43:00,107.0,26.0,29.78,SW,222,2.0,3.0,6,0.00,,,0.00,,2013-08-07 23:43:00,
2013-08-07 16:52:00,107.0,26.0,29.77,NW,310,1.0,3.0,6,0.00,,,0.00,,2013-08-07 23:52:00,
2013-08-07 17:01:00,107.0,30.0,29.77,SW,228,3.0,5.0,7,0.00,,,0.00,,2013-08-08 00:01:00,
2013-08-07 17:11:00,107.0,26.0,29.77,NW,308,1.0,1.0,6,0.00,,,0.00,,2013-08-08 00:11:00,
2013-08-07 17:42:00,106.0,25.0,29.77,West,259,5.0,7.0,6,0.00,,,0.00,,2013-08-08 00:42:00,
2013-08-07 18:02:00,105.0,25.0,29.77,NW,304,1.0,7.0,6,0.00,,,0.00,,2013-08-08 01:02:00,
2013-08-07 18:11:00,105.0,32.0,29.77,West,264,3.0,8.0,8,0.00,,,0.00,,2013-08-08 01:11:00,
2013-08-07 18:32:00,105.0,25.0,29.76,West,259,5.0,6.0,6,0.00,,,0.00,,2013-08-08 01:32:00,
2013-08-07 18:52:00,104.0,31.0,29.76,SW,224,3.0,4.0,8,0.00,,,0.00,,2013-08-08 01:52:00,
2013-08-07 19:42:00,100.0,31.0,29.76,SW,228,1.0,1.0,9,0.00,,,0.00,,2013-08-08 02:42:00,
2013-08-07 19:52:00,99.0,30.0,29.76,SSW,210,0.0,0.0,9,0.00,,,0.00,,2013-08-08 02:52:00,
2013-08-07 20:01:00,98.0,32.0,29.77,SSW,207,1.0,2.0,10,0.00,,,0.00,,2013-08-08 03:01:00,
2013-08-07 20:11:00,97.0,31.0,29.76,SSW,208,0.0,0.0,10,0.00,,,0.00,,2013-08-08 03:11:00,
2013-08-07 20:32:00,95.0,34.0,29.77,SSE,159,0.0,1.0,12,0.00,,,0.00,,2013-08-08 03:32:00,
2013-08-07 20:43:00,94.0,34.0,29.77,SSE,158,0.0,1.0,12,0.00,,,0.00,,2013-08-08 03:43:00,
2013-08-07 20:52:00,94.0,34.0,29.77,SSE,160,0.0,1.0,12,0.00,,,0.00,,2013-08-08 03:52:00,
2013-08-07 21:01:00,93.0,35.0,29.77,South,172,0.0,1.0,13,0.00,,,0.00,,2013-08-08 04:01:00,
2013-08-07 21:32:00,91.0,40.0,29.78,SW,217,0.0,1.0,17,0.00,,,0.00,,2013-08-08 04:32:00,
2013-08-07 21:43:00,90.0,42.0,29.79,SW,230,0.0,1.0,19,0.00,,,0.00,,2013-08-08 04:43:00,
2013-08-07 22:01:00,88.0,41.0,29.80,West,271,1.0,3.0,19,0.00,,,0.00,,2013-08-08 05:01:00,
2013-08-07 22:11:00,87.0,40.0,29.80,WSW,241,2.0,3.0,19,0.00,,,0.00,,2013-08-08 05:11:00,
2013-08-07 22:52:00,86.0,49.0,29.80,SW,221,1.0,2.0,28,0.00,,,0.00,,2013-08-08 05:52:00,
2013-08-07 23:01:00,85.0,48.0,29.80,SSW,211,2.0,3.0,28,0.00,,,0.00,,2013-08-08 06:01:00,
2013-08-07 23:11:00,85.0,47.0,29.80,South,191,1.0,1.0,27,0.00,,,0.00,,2013-08-08 06:11:00,
2013-08-07 23:52:00,84.0,45.0,29.80,South,172,1.0,2.0,26,0.00,,,0.00,,2013-08-08 06:52:00,